This is the latest recevied weather packets stored in our database for station/object W6MAF. If no packets are shown the sender has not sent any weather packets the latest 10 day(s).
| Time | Temp. | Humidity | Pressure | Rain* | Wind** | Luminosity | Snow |
|---|---|---|---|---|---|---|---|
| 1777759389 | 25° C | 4% | - | 0 mm | 6.71 m/s, 176° | - | - |
| 1777759092 | 25.56° C | 4% | - | 0 mm | 5.36 m/s, 208° | - | - |
| 1777758791 | 25.56° C | 4% | - | 0 mm | 7.15 m/s, 215° | - | - |
| 1777758493 | 25.56° C | 4% | - | 0 mm | 4.47 m/s, 150° | - | - |
| 1777758195 | 25.56° C | 4% | - | 0 mm | 1.79 m/s, 219° | - | - |
| 1777757897 | 25.56° C | 4% | - | 0 mm | 2.68 m/s, 181° | - | - |
| 1777757302 | 25.56° C | 4% | - | 0 mm | 0 m/s | - | - |
| 1777757001 | 25.56° C | 4% | - | 0 mm | 4.92 m/s, 205° | - | - |
| 1777756703 | 25.56° C | 4% | - | 0 mm | 2.24 m/s, 215° | - | - |
| 1777756406 | 25.56° C | 4% | - | 0 mm | 3.58 m/s, 184° | - | - |
| 1777756108 | 25.56° C | 4% | - | 0 mm | 5.81 m/s, 195° | - | - |
| 1777755810 | 25.56° C | 4% | - | 0 mm | 3.13 m/s, 221° | - | - |
| 1777755513 | 25.56° C | 4% | - | 0 mm | 0 m/s | - | - |
| 1777755212 | 25.56° C | 5% | - | 0 mm | 0 m/s | - | - |
| 1777754914 | 25.56° C | 4% | - | 0 mm | 2.24 m/s, 207° | - | - |
| 1777754617 | 25.56° C | 4% | - | 0 mm | 0 m/s | - | - |
| 1777754319 | 25.56° C | 4% | - | 0 mm | 5.36 m/s, 217° | - | - |
| 1777754021 | 25.56° C | 4% | - | 0 mm | 0 m/s | - | - |
| 1777753723 | 26.11° C | 4% | - | 0 mm | 3.13 m/s, 158° | - | - |
| 1777753423 | 25.56° C | - | - | - | 1.34 m/s, 240° | - | - |
| 1777753422 | 25.56° C | 5% | - | 0 mm | 1.34 m/s, 240° | - | - |
| 1777753124 | 25.56° C | 5% | - | 0 mm | 0 m/s | - | - |
| 1777752827 | 25.56° C | 4% | - | 0 mm | 0.89 m/s, 165° | - | - |
| 1777752529 | 25.56° C | 5% | - | 0 mm | 0 m/s | - | - |
| 1777752231 | 25.56° C | 4% | - | 0 mm | 3.58 m/s, 173° | - | - |
* Rain latest hour (hover to see other rain measurements)
** Current wind speed in m/s (hover to see current wind gust speed)